カタログに戻る

NAVSTAR 56

USA 180

運用中ナビゲーションHEO
NORAD 28474·PAYLOAD·🇺🇸 United States

打ち上げ Nov 6, 2004 から Cape Canaveral Space Force Station

Loading…

次のパス (今後24時間)

TLE

最新Source: CelesTrak SupGP

元期: Sep 16, 2026, 16:44 UTC

1 28474C 04045A   26259.69756944  .00000000  00000+0  00000+0 0  2599
2 28474  55.0767 321.2058 0172217 318.6791 152.3354  2.00560176    14

AllMySatでNAVSTAR 56をリアルタイム追跡

Download on the App Store